This demonstration page uses our WeatherBlox Daily Observations layout. Learn more.

Left ArrowRight Arrow

44.89941, -97.11507

Hourly Observations for August 13, 2016

Temp ( °F °C ) Dew Point ( °F °C ) Humidity (%) Winds ( mph kmh ) Pressure ( in mb ) Visibility ( mi km ) Precip ( " mm )
12:53 am 00:53 Clear 64 17.8 61 16.1 90 90 Calm 29.95 1014 10 16 0.00 0.00
1:53 am 01:53 Clear 63 17.2 61 16.1 93 93 S 3 6 29.95 1014 10 16 0.00 0.00
2:53 am 02:53 Clear 63 17.2 61 16.1 93 93 SSW 3 6 29.94 1014 10 16 0.00 0.00
3:53 am 03:53 Mostly Clear 63 17.2 60 15.6 90 90 Calm 29.94 1014 10 16 0.00 0.00
4:53 am 04:53 Mostly Cloudy 63 17.2 60 15.6 90 90 SSW 6 9 29.94 1014 10 16 0.00 0.00
5:53 am 05:53 Cloudy 64 17.8 60 15.6 87 87 W 3 6 29.95 1014 10 16 0.00 0.00
6:53 am 06:53 Sunny 64 17.8 61 16.1 90 90 NW 7 11 29.95 1014 10 16 0.00 0.00
7:53 am 07:53 Sunny 67 19.4 63 17.2 87 87 NW 7 11 29.96 1015 10 16 0.00 0.00
8:53 am 08:53 Sunny 69 20.6 61 16.1 76 76 NW 7 11 29.96 1015 10 16 0.00 0.00
9:53 am 09:53 Sunny 73 22.8 61 16.1 66 66 WNW 8 13 29.97 1015 10 16 0.00 0.00
10:53 am 10:53 Sunny 75 23.9 61 16.1 62 62 W 10 17 29.97 1015 10 16 0.00 0.00
11:53 am 11:53 Sunny 77 25 59 15 54 54 NW 13 20 29.98 1015 10 16 0.00 0.00
12:53 pm 12:53 Sunny 79 26.1 58 14.4 49 49 WNW 13 20 29.98 1015 10 16 0.00 0.00
1:53 pm 13:53 Mostly Sunny 80 26.7 57 13.9 45 45 NW 16 26 29.97 1015 10 16 0.00 0.00
2:53 pm 14:53 Mostly Sunny 78 25.6 56 13.3 47 47 NW 14 22 29.96 1015 10 16 0.00 0.00
3:53 pm 15:53 Partly Cloudy 79 26.1 57 13.9 47 47 WNW 9 15 29.95 1014 10 16 0.00 0.00
4:53 pm 16:53 Partly Cloudy 80 26.7 58 14.4 47 47 WNW 9 15 29.94 1014 10 16 0.00 0.03
5:53 pm 17:53 Mostly Sunny 79 26.1 59 15 50 50 NNW 12 19 29.94 1014 10 16 0.00 0.00
6:53 pm 18:53 Partly Cloudy 78 25.6 57 13.9 48 48 NW 14 22 29.95 1014 10 16 0.00 0.00
7:53 pm 19:53 Partly Cloudy 75 23.9 57 13.9 54 54 NW 13 20 29.96 1014 10 16 0.00 0.00
8:53 pm 20:53 Clear 71 21.7 58 14.4 63 63 NW 8 13 29.97 1015 10 16 0.00 0.00
9:53 pm 21:53 Clear 68 20 59 15 73 73 N 7 11 29.99 1016 10 16 0.00 0.00
10:53 pm 22:53 Clear 63 17.2 58 14.4 84 84 Calm 30.01 1016 10 16 0.00 0.00
11:53 pm 23:53 Clear 64 17.8 58 14.4 81 81 Calm 30.01 1016 10 16 0.00 0.00

Powered by AerisWeather